Date_and_time,latitude,longitude,wind_speed,RelWindDirFrom,WindDirFrom,air_pressure,air_temperature,relative_humidity,Temp,platform_speed_wrt_ground,air_pressure_at_mean_sea_level,platform_orientation
2019-11-27 23:40,50.630445,-96.9807733333333,8.2,11.3,338,1002.76,-5.1,67,1.07,0.0,1031.55,270.0
2019-11-27 23:50,50.630445,-96.9807733333333,7.9,10.6,340,1002.93,-5.4,67,1.07,0.0,1031.73,270.0
2019-11-28 00:00,50.630445,-96.9807733333333,9.0,11.2,344,1003.07,-5.4,67,1.07,0.0,1031.88,270.0
2019-11-28 00:10,50.630445,-96.9807733333333,9.5,12.2,354,1003.16,-5.3,69,1.07,0.0,1031.97,270.0
2019-11-28 00:20,50.6304433333333,-96.9807716666667,9.2,11.5,355,1003.46,-5.3,70,1.07,0.0,1032.28,270.0
2019-11-28 00:30,50.6304416666667,-96.9807433333333,11.3,14.3,4,1003.46,-5.2,72,1.08,0.0,1032.27,270.0
2019-11-28 00:40,50.6304466666667,-96.980775,15.3,19.2,17,1003.11,-5.0,71,1.08,0.0,1031.91,270.0
2019-11-28 00:50,50.6304466666667,-96.98077,16.4,20.0,17,1003.09,-4.9,68,1.08,0.0,1031.90,270.0
2019-11-28 01:00,50.6304466666667,-96.98077,14.1,19.3,17,1003.75,-4.9,66,1.08,0.0,1032.57,360.0
2019-11-28 01:10,50.6304433333333,-96.98077,12.6,16.6,18,1004.07,-4.9,68,1.09,0.0,1032.90,360.0
2019-11-28 01:20,50.6304433333333,-96.9807683333333,14.9,17.9,15,1004.09,-4.9,64,1.09,0.0,1032.93,360.0
2019-11-28 01:30,50.6304433333333,-96.9807666666667,14.9,17.3,15,1004.18,-4.9,67,1.09,0.0,1033.04,360.0
2019-11-28 01:40,50.630445,-96.9807666666667,15.8,19.7,20,1004.04,-4.9,67,1.10,0.0,1032.91,360.0
2019-11-28 01:50,50.630445,-96.9807683333333,16.5,20.6,31,1003.97,-4.9,65,1.10,0.0,1032.84,360.0
2019-11-28 02:00,50.6304466666667,-96.98077,13.9,17.4,40,1004.92,-4.9,63,1.10,0.0,1033.81,12.6
2019-11-28 02:10,50.6304483333333,-96.98077,15.0,18.3,40,1004.89,-4.8,63,1.09,0.0,1033.77,12.6
2019-11-28 02:20,50.63044,-96.9807633333333,14.8,19.7,30,1004.79,-4.8,63,1.08,0.0,1033.67,12.6
2019-11-28 02:30,50.63046,-96.9807783333333,14.1,21.0,26,1004.90,-4.8,62,1.08,0.0,1033.77,12.6
2019-11-28 02:40,50.63045,-96.98077,15.4,20.2,30,1004.65,-4.9,64,1.08,0.0,1033.51,12.6
2019-11-28 02:50,50.6304516666667,-96.9807733333333,14.8,17.7,31,1004.86,-4.9,63,1.08,0.0,1033.72,12.6
2019-11-28 03:00,50.6304483333333,-96.9807716666667,12.6,15.5,38,1004.93,-4.9,62,1.08,0.0,1033.80,360.0
2019-11-28 03:10,50.63045,-96.980775,14.2,16.4,33,1004.78,-5.0,64,1.09,0.0,1033.65,360.0
2019-11-28 03:20,50.63045,-96.9807733333333,13.5,16.5,42,1005.02,-4.9,64,1.09,0.0,1033.89,360.0
2019-11-28 03:30,50.6304466666667,-96.9807483333333,13.6,17.8,41,1005.08,-4.9,64,1.09,0.0,1033.96,360.0
2019-11-28 03:40,50.6304483333333,-96.98076,13.4,17.7,44,1005.12,-5.0,66,1.09,0.0,1034.00,360.0
2019-11-28 03:50,50.63045,-96.98076,12.4,16.8,41,1005.40,-5.0,63,1.09,0.0,1034.29,360.0
2019-11-28 04:00,50.6304483333333,-96.98076,10.2,13.0,36,1005.71,-5.1,65,1.10,0.0,1034.60,90.0
2019-11-28 04:10,50.6304483333333,-96.98076,10.9,12.8,41,1005.62,-5.1,64,1.11,0.0,1034.52,90.0
2019-11-28 04:20,50.6304433333333,-96.98075,9.3,11.0,41,1005.69,-5.2,68,1.10,0.0,1034.59,90.0
2019-11-28 04:30,50.6304533333333,-96.9807616666667,8.3,9.8,41,1005.86,-5.2,67,1.09,0.0,1034.77,90.0
2019-11-28 04:40,50.6304533333333,-96.9807683333333,8.4,9.4,37,1006.13,-5.2,68,1.08,0.0,1035.05,90.0
2019-11-28 04:50,50.6304366666667,-96.9807533333333,7.2,8.3,30,1006.43,-5.3,70,1.07,0.0,1035.37,90.0
2019-11-28 05:00,50.6304466666667,-96.980755,6.9,7.9,32,1006.62,-5.4,71,1.07,0.0,1035.56,90.0
2019-11-28 05:10,50.6304216666667,-96.98073,7.0,8.3,32,1006.77,-5.4,71,1.07,0.0,1035.72,90.0
2019-11-28 05:20,50.6304416666667,-96.980765,5.9,7.0,31,1007.04,-5.5,71,1.07,0.0,1036.00,90.0
2019-11-28 05:30,50.630435,-96.9807666666667,4.7,5.7,20,1007.29,-5.6,72,1.07,0.0,1036.27,90.0
2019-11-28 05:40,50.6304183333333,-96.9807366666667,4.1,6.9,287,1007.63,-6.6,71,1.07,0.0,1036.67,90.0
2019-11-28 05:50,50.63044,-96.9807633333333,5.2,6.5,289,1007.79,-8.1,73,1.07,0.0,1036.93,90.0
2019-11-28 06:00,50.6304466666667,-96.98076,5.2,6.5,293,1007.92,-8.5,74,1.07,0.0,1037.08,90.0
2019-11-28 06:10,50.6304466666667,-96.9807566666667,5.7,7.0,291,1008.00,-8.7,75,1.07,0.0,1037.18,90.0
2019-11-28 06:20,50.6304466666667,-96.9807583333333,5.4,6.5,290,1008.13,-8.8,76,1.07,0.0,1037.32,90.0
2019-11-28 06:30,50.6304483333333,-96.98076,5.3,7.1,300,1008.21,-8.7,76,1.07,0.0,1037.40,90.0
2019-11-28 06:40,50.6304483333333,-96.98076,5.3,7.3,304,1008.26,-8.5,76,1.07,0.0,1037.45,90.0
2019-11-28 06:50,50.6304483333333,-96.98076,5.3,6.9,303,1008.31,-8.5,77,1.07,0.0,1037.50,90.0
2019-11-28 07:00,50.6304483333333,-96.9807616666667,5.5,6.9,307,1008.33,-8.5,77,1.06,0.0,1037.52,0.0
2019-11-28 07:10,50.6304533333333,-96.9807733333333,5.3,6.6,314,1008.44,-8.5,78,1.06,0.0,1037.64,0.0
2019-11-28 07:20,50.6304483333333,-96.980765,5.1,6.3,313,1008.50,-8.6,78,1.05,0.0,1037.71,0.0
2019-11-28 07:30,50.6304516666667,-96.980765,4.3,6.1,322,1008.36,-8.7,79,1.05,0.0,1037.63,0.0
2019-11-28 07:40,50.63045,-96.980765,4.5,5.9,339,1008.29,-8.7,80,1.05,0.0,1037.65,0.0
2019-11-28 07:50,50.63045,-96.9807716666667,4.5,6.2,336,1008.39,-8.8,80,1.05,0.0,1037.77,0.0
2019-11-28 08:00,50.6304533333333,-96.980775,3.4,4.7,327,1008.68,-8.9,80,1.06,0.0,1038.09,299.2
2019-11-28 08:10,50.6304533333333,-96.9807716666667,3.3,4.5,325,1008.78,-9.0,81,1.06,0.0,1038.21,299.2
2019-11-28 08:20,50.630455,-96.9807733333333,3.7,5.2,329,1008.86,-9.1,81,1.06,0.0,1038.29,299.2
2019-11-28 08:30,50.6304533333333,-96.98077,4.4,5.5,333,1008.81,-9.2,81,1.07,0.0,1038.23,299.2
2019-11-28 08:40,50.6304533333333,-96.9807683333333,4.6,5.8,342,1008.70,-9.1,82,1.08,0.0,1038.11,299.2
2019-11-28 08:50,50.6304533333333,-96.9807683333333,4.4,5.7,343,1008.68,-9.1,82,1.08,0.0,1038.09,299.2
2019-11-28 09:00,50.6304533333333,-96.9807683333333,4.0,5.1,341,1008.77,-9.0,82,1.07,0.0,1038.17,311.7
2019-11-28 09:10,50.63045,-96.9807433333333,4.0,5.0,345,1008.76,-9.1,83,1.06,0.0,1038.18,311.7
2019-11-28 09:20,50.6304516666667,-96.9807533333333,3.0,4.1,349,1008.79,-9.0,84,1.07,0.0,1038.21,311.7
2019-11-28 09:30,50.63045,-96.9807566666667,3.5,4.1,354,1008.84,-8.9,85,1.08,0.0,1038.26,311.7
2019-11-28 09:40,50.6304516666667,-96.98076,4.0,5.1,359,1008.70,-8.9,86,1.08,0.0,1038.11,311.7
2019-11-28 09:50,50.63044,-96.9807566666667,4.9,5.8,3,1008.75,-8.7,88,1.09,0.0,1038.17,311.7
2019-11-28 10:00,50.6304616666667,-96.9807783333333,5.3,6.0,5,1008.79,-8.2,88,1.09,0.0,1038.19,317.0
2019-11-28 10:10,50.6304566666667,-96.9807733333333,4.6,5.2,4,1008.72,-8.1,89,1.09,0.0,1038.12,317.0
2019-11-28 10:20,50.6304566666667,-96.98077,5.2,6.0,359,1008.53,-8.2,90,1.09,0.0,1037.92,317.0
2019-11-28 10:30,50.6304533333333,-96.9807683333333,4.9,6.4,353,1008.42,-8.4,91,1.09,0.0,1037.81,317.0
2019-11-28 10:40,50.6304533333333,-96.98077,4.0,4.8,350,1008.54,-8.4,92,1.09,0.0,1037.94,317.0
2019-11-28 10:50,50.630435,-96.9807733333333,3.1,4.3,359,1008.53,-8.4,93,1.09,0.0,1037.92,317.0
2019-11-28 11:00,50.630445,-96.980765,2.5,3.4,351,1008.64,-8.4,93,1.09,0.0,1038.04,165.5
2019-11-28 11:10,50.630445,-96.980765,3.5,4.0,351,1008.65,-8.5,93,1.09,0.0,1038.06,165.5
2019-11-28 11:20,50.6304633333333,-96.9807766666667,4.3,5.4,2,1008.50,-8.8,93,1.09,0.0,1037.91,165.5
2019-11-28 11:30,50.6304433333333,-96.9807566666667,4.1,5.0,360,1008.49,-8.9,95,1.08,0.0,1037.90,165.5
2019-11-28 11:40,50.6304483333333,-96.9807633333333,4.0,4.8,6,1008.59,-8.6,95,1.08,0.0,1037.98,165.5
2019-11-28 11:50,50.63045,-96.98076,4.0,6.1,22,1008.58,-7.9,96,1.08,0.0,1037.91,165.5
2019-11-28 12:00,50.63045,-96.98076,4.3,7.3,56,1008.67,-7.5,96,1.07,0.0,1037.97,90.0
2019-11-28 12:10,50.63045,-96.98076,6.2,7.7,75,1008.97,-6.8,94,1.07,0.0,1038.24,90.0
2019-11-28 12:20,50.630455,-96.9807766666667,6.3,7.7,81,1009.13,-6.7,92,1.07,0.0,1038.41,90.0
2019-11-28 12:30,50.63045,-96.9807633333333,8.0,10.1,71,1008.71,-6.8,91,1.07,0.0,1037.98,90.0
2019-11-28 12:40,50.6304566666667,-96.98077,8.6,9.6,72,1008.49,-6.8,91,1.06,0.0,1037.76,90.0
2019-11-28 12:50,50.6304583333333,-96.9807683333333,9.4,10.8,73,1008.46,-6.8,90,1.06,0.0,1037.73,90.0
2019-11-28 13:00,50.63046,-96.9807583333333,9.3,10.5,73,1008.54,-6.9,90,1.06,0.0,1037.82,107.7
2019-11-28 13:10,50.6304583333333,-96.9807566666667,8.0,10.0,75,1008.77,-6.9,90,1.06,0.0,1038.07,107.7
2019-11-28 13:20,50.6304566666667,-96.9807566666667,5.0,7.1,83,1009.20,-6.8,91,1.07,0.0,1038.52,107.7
2019-11-28 13:30,50.6304583333333,-96.9807583333333,4.2,5.7,97,1009.53,-6.7,90,1.06,0.0,1038.84,107.7
2019-11-28 13:40,50.6304583333333,-96.98076,4.1,5.1,88,1009.48,-6.7,89,1.06,0.0,1038.74,107.7
2019-11-28 13:50,50.6304583333333,-96.9807633333333,5.1,5.9,79,1009.18,-6.8,90,1.06,0.0,1038.41,107.7
2019-11-28 14:00,50.6304583333333,-96.9807633333333,4.4,6.0,88,1009.28,-6.7,90,1.07,0.0,1038.48,360.0
2019-11-28 14:10,50.6304583333333,-96.9807783333333,3.7,5.0,91,1009.53,-6.7,89,1.07,0.0,1038.73,360.0
2019-11-28 14:20,50.6304616666667,-96.9807783333333,4.1,5.2,89,1009.51,-6.6,88,1.06,0.0,1038.71,360.0
2019-11-28 14:30,50.6304566666667,-96.9807633333333,4.3,6.5,89,1009.59,-6.5,88,1.06,0.0,1038.79,360.0
2019-11-28 14:40,50.6304583333333,-96.980765,2.7,5.9,142,1009.69,-7.1,89,1.06,0.0,1038.93,360.0
2019-11-28 14:50,50.6304583333333,-96.9807616666667,2.5,3.6,191,1009.90,-7.8,91,1.06,0.0,1039.18,360.0
2019-11-28 15:00,50.630455,-96.98076,2.3,3.5,204,1010.01,-8.0,90,1.06,0.0,1039.30,90.0
2019-11-28 15:10,50.6304566666667,-96.9807633333333,2.1,3.1,200,1010.04,-8.2,90,1.06,0.0,1039.34,90.0
2019-11-28 15:20,50.630455,-96.9807633333333,1.4,3.5,202,1010.03,-8.0,90,1.06,0.0,1039.31,90.0
2019-11-28 15:30,50.6304533333333,-96.9807783333333,1.9,3.3,100,1009.98,-7.0,90,1.07,0.0,1039.22,90.0
2019-11-28 15:40,50.63046,-96.98077,4.1,5.4,87,1009.96,-6.4,85,1.06,0.0,1039.16,90.0
2019-11-28 15:50,50.6304383333333,-96.980745,4.3,5.3,84,1009.97,-5.9,82,1.06,0.0,1039.14,90.0
2019-11-28 16:00,50.6304516666667,-96.9807633333333,3.6,5.3,88,1010.03,-5.2,79,1.06,0.0,1039.17,228.3
2019-11-28 16:10,50.6304516666667,-96.9807683333333,3.2,4.6,88,1010.08,-4.8,77,1.06,0.0,1039.19,228.3
2019-11-28 16:20,50.630455,-96.9807666666667,2.6,3.9,89,1010.08,-4.1,74,1.06,0.0,1039.14,228.3
2019-11-28 16:30,50.6304533333333,-96.980765,3.2,4.4,93,1010.03,-4.1,75,1.06,0.0,1039.12,228.3
2019-11-28 16:40,50.630455,-96.980765,3.9,5.3,91,1010.05,-4.2,73,1.06,0.0,1039.19,228.3
2019-11-28 16:50,50.630435,-96.9807683333333,3.5,4.5,96,1010.12,-4.9,75,1.06,0.0,1039.31,228.3
2019-11-28 17:00,50.6304433333333,-96.980765,2.8,4.3,80,1010.19,-5.4,78,1.06,0.0,1039.42,360.0
2019-11-28 17:10,50.6304483333333,-96.9807633333333,2.6,4.1,97,1010.19,-5.4,77,1.06,0.0,1039.41,360.0
2019-11-28 17:20,50.63045,-96.98076,3.5,4.7,84,1010.06,-5.4,77,1.06,0.0,1039.23,360.0
2019-11-28 17:30,50.63045,-96.9807633333333,3.9,5.7,82,1009.87,-5.5,76,1.06,0.0,1039.00,360.0
2019-11-28 17:40,50.6304516666667,-96.980765,3.6,5.2,82,1009.76,-5.5,77,1.06,0.0,1038.86,360.0
2019-11-28 17:50,50.6304566666667,-96.9807683333333,2.6,4.0,94,1009.74,-5.5,77,1.06,0.0,1038.79,360.0
2019-11-28 18:00,50.6304483333333,-96.9807733333333,2.0,3.4,74,1009.57,-5.4,77,1.05,0.0,1038.59,240.8
2019-11-28 18:10,50.6304516666667,-96.9807666666667,4.0,5.2,61,1009.29,-5.6,77,1.05,0.0,1038.28,240.8
2019-11-28 18:20,50.63045,-96.980765,4.6,6.5,54,1009.13,-5.7,78,1.05,0.0,1038.12,240.8
2019-11-28 18:30,50.630455,-96.9807333333333,6.7,9.0,60,1008.75,-5.7,75,1.05,0.0,1037.73,240.8
2019-11-28 18:40,50.6304566666667,-96.9807516666667,6.8,8.5,49,1008.47,-5.7,78,1.05,0.0,1037.49,240.8
2019-11-28 18:50,50.6304533333333,-96.9807633333333,6.9,8.7,60,1008.37,-5.7,77,1.05,0.0,1037.41,240.8
2019-11-28 19:00,50.6304516666667,-96.9807733333333,7.1,9.7,56,1008.20,-5.7,77,1.05,0.0,1037.24,270.0
2019-11-28 19:10,50.6304566666667,-96.98077,6.3,8.3,52,1008.11,-5.7,78,1.05,0.0,1037.14,270.0
2019-11-28 19:20,50.63043,-96.98079,6.3,8.2,50,1008.03,-5.8,78,1.05,0.0,1037.07,270.0
2019-11-28 19:30,50.6304383333333,-96.9807733333333,6.9,8.5,47,1007.91,-5.9,79,1.06,0.0,1036.96,270.0
2019-11-28 19:40,50.6304416666667,-96.980775,5.9,7.7,59,1007.87,-5.8,79,1.06,0.0,1036.90,270.0
2019-11-28 19:50,50.6304416666667,-96.9807716666667,5.9,8.0,55,1007.64,-5.7,79,1.06,0.0,1036.65,270.0
2019-11-28 20:00,50.6304366666667,-96.980745,7.4,9.7,49,1007.45,-5.6,78,1.06,0.0,1036.47,111.5
2019-11-28 20:10,50.6304433333333,-96.9807583333333,8.8,10.7,33,1007.32,-5.7,79,1.06,0.0,1036.34,111.5
2019-11-28 20:20,50.6304433333333,-96.9807633333333,9.7,11.8,26,1007.21,-5.7,82,1.07,0.0,1036.23,111.5
2019-11-28 20:30,50.630445,-96.9807683333333,10.1,12.0,38,1007.10,-5.5,76,1.07,0.0,1036.11,111.5
2019-11-28 20:40,50.6304466666667,-96.9807683333333,10.8,12.7,48,1006.97,-5.4,72,1.07,0.0,1035.97,111.5
2019-11-28 20:50,50.6304466666667,-96.9807683333333,11.3,13.1,41,1006.82,-5.4,75,1.07,0.0,1035.82,111.5
2019-11-28 21:00,50.6304466666667,-96.9807683333333,12.3,14.4,42,1006.74,-5.4,75,1.08,0.0,1035.73,90.0
2019-11-28 21:10,50.6304466666667,-96.9807683333333,12.6,15.1,34,1006.69,-5.5,82,1.08,0.0,1035.70,90.0
2019-11-28 21:20,50.6304416666667,-96.9807766666667,11.5,13.4,33,1006.80,-5.6,83,1.09,0.0,1035.82,90.0
2019-11-28 21:30,50.6304483333333,-96.98078,11.7,14.4,36,1006.76,-5.7,83,1.09,0.0,1035.78,90.0
2019-11-28 21:40,50.6304483333333,-96.9807716666667,12.6,14.3,34,1006.65,-5.7,83,1.10,0.0,1035.66,90.0
2019-11-28 21:50,50.6304483333333,-96.98077,11.4,13.0,39,1006.86,-5.7,82,1.11,0.0,1035.86,90.0
2019-11-28 22:00,50.630455,-96.980795,11.3,13.0,40,1006.95,-5.7,81,1.11,0.0,1035.96,270.0
2019-11-28 22:10,50.6304566666667,-96.9807866666667,11.4,13.4,37,1006.92,-5.6,82,1.12,0.0,1035.93,270.0
2019-11-28 22:20,50.6304516666667,-96.98078,12.0,13.5,38,1006.89,-5.7,82,1.12,0.0,1035.88,270.0
2019-11-28 22:30,50.6304516666667,-96.9807766666667,11.7,13.3,37,1007.00,-5.7,81,1.12,0.0,1036.00,270.0
2019-11-28 22:40,50.6304516666667,-96.9807766666667,11.1,13.3,36,1007.01,-5.6,80,1.13,0.0,1036.01,270.0
2019-11-28 22:50,50.6304516666667,-96.9807766666667,12.3,13.9,34,1006.90,-5.5,78,1.12,0.0,1035.89,270.0
2019-11-28 23:00,50.6304516666667,-96.9807766666667,12.4,14.6,40,1007.03,-5.3,74,1.12,0.0,1036.02,317.0
2019-11-28 23:10,50.6304516666667,-96.9807766666667,12.9,15.1,44,1007.14,-5.2,71,1.11,0.0,1036.13,317.0
2019-11-28 23:20,50.6304516666667,-96.980775,12.5,14.1,46,1007.15,-5.2,72,1.12,0.0,1036.14,317.0
2019-11-28 23:30,50.63045,-96.980775,13.0,14.9,56,1007.26,-5.0,67,1.13,0.0,1036.24,317.0
2019-11-28 23:40,50.6304516666667,-96.980775,13.4,15.2,63,1007.25,-4.9,65,1.13,0.0,1036.23,317.0
2019-11-28 23:50,50.6304516666667,-96.980775,13.7,15.5,64,1007.23,-5.0,64,1.13,0.0,1036.21,317.0
